Location: Kunchanapalle
(16.4623°N, 80.6176°E)
Time: 09:51:45
(UTC+00:00)

VEP-3 - Pass Details

Date: 13 August 2020
Orbit: 1004 x 33739 km, 23.8° (Epoch: 17 September)

Event Time Altitude Azimuth Distance (km) Brightness Sun altitude
Rises 14:49:53 0° 288° (WNW) 3,715 6.9 -24.9°
Reaches altitude 10° 14:51:48 10° 289° (WNW) 2,852 6.0 -25.3°
Maximum altitude 14:57:26 86° 19° (NNE) 1,546 3.4 -26.5°
Enters shadow 15:01:59 41° 105° (ESE) 2,982 4.4 -27.5°
